Wind_Speed
18 18 19 20 23 25 26 25 24 22 20 18 17 16 14 13 11 10 9 8 7 7 6 6 7 7 7 8 8 9 10 11 13 14 15 16 17 18 19 20 20 20 20 20 19 19 19 20 20 21 21 22 23 23 24 24 24 24 25 25 25 25 25 25 26 26 26 27 27
18 19 20 22 25 26 26 25 23 21 19 17 16 15 13 12 10 9 8 7 7 7 6 7 7 7 7 8 9 10 11 12 13 14 15 16 17 18 19 20 20 20 20 20 20 20 20 20 21 21 22 22 23 23 24 24 24 24 24 24 25 25 25 25 26 26 27 27 28
19 21 23 25 27 27 26 25 22 20 19 17 16 14 13 11 10 9 8 7 7 7 7 7 7 7 8 9 10 11 12 13 14 15 16 17 18 19 19 20 20 20 20 20 20 20 20 21 21 22 22 23 23 23 24 24 24 24 24 24 25 25 25 26 26 27 27 28 28
21 23 25 27 28 27 25 23 21 20 18 17 16 14 12 11 10 9 8 7 7 7 7 7 7 8 8 9 11 12 13 13 14 15 16 17 18 19 19 20 20 20 21 21 21 21 21 21 22 22 23 23 23 23 23 23 23 23 24 24 25 25 26 26 27 27 27 28 28
24 26 27 28 27 26 24 22 20 19 17 16 15 13 12 10 9 8 8 7 7 6 7 7 8 8 9 10 11 12 13 14 15 15 16 17 18 19 20 20 20 21 21 21 21 21 21 22 22 23 23 23 23 23 23 23 23 23 24 24 25 25 26 26 27 27 28 28 28
26 28 29 28 26 24 22 20 18 17 16 15 14 12 11 10 9 8 7 7 6 7 7 8 8 9 10 11 12 13 14 15 15 16 16 17 18 19 20 20 20 21 21 21 21 21 22 22 22 23 22 22 22 23 23 23 23 23 24 24 25 26 26 27 27 28 28 29 29
28 29 29 27 25 23 21 19 17 16 15 14 12 11 10 9 8 8 7 7 7 7 7 8 9 10 11 12 13 14 14 15 16 16 17 17 18 19 20 20 21 21 21 21 21 22 22 22 22 22 22 22 22 22 23 23 23 24 24 25 25 26 27 27 28 28 29 29 29
29 29 28 26 24 22 20 18 17 16 15 13 12 10 9 9 8 8 7 7 7 7 8 9 10 11 12 13 14 14 15 16 16 17 17 18 18 19 20 20 21 21 21 21 21 21 22 22 22 22 22 22 22 22 23 23 24 24 25 25 26 26 27 28 28 29 29 29 29
29 29 27 25 23 21 19 17 16 15 14 13 12 11 10 9 8 8 8 7 7 8 9 10 11 12 13 13 14 15 15 16 16 17 17 18 18 19 20 20 20 21 21 21 21 21 21 21 21 21 21 22 22 23 23 24 24 25 26 26 27 27 28 28 28 29 29 29 29
29 28 27 25 22 20 19 17 16 15 14 13 12 11 10 9 9 8 8 8 8 9 10 10 11 12 13 14 14 15 16 16 16 17 18 18 19 19 19 20 20 20 21 21 21 21 21 21 21 21 21 22 22 23 24 24 25 26 26 27 27 28 28 28 29 29 29 29 29
28 27 26 24 22 21 19 18 17 15 14 13 12 11 10 9 9 9 8 9 9 10 10 11 12 13 13 14 15 15 16 16 17 17 18 18 19 19 20 20 20 20 20 20 20 20 20 20 20 21 21 22 23 24 24 25 26 26 27 28 28 29 29 29 29 29 29 29 29
27 26 25 24 22 21 19 18 17 16 15 13 12 11 10 10 9 9 9 9 10 10 11 12 12 13 14 14 15 15 16 16 17 17 18 19 19 19 20 20 20 20 20 20 20 20 20 20 21 21 22 22 23 24 25 26 26 27 28 28 29 29 29 29 29 29 29 29 29
25 25 24 23 22 21 19 18 17 16 15 14 13 12 11 10 10 10 10 10 10 11 12 12 13 13 14 14 15 15 16 16 17 18 18 19 19 19 19 19 19 19 19 20 20 20 20 21 21 22 22 23 24 25 25 26 27 28 28 29 29 29 30 30 30 30 30 30 29
25 24 24 23 22 20 19 18 17 16 15 14 13 12 11 11 10 10 10 10 11 11 12 13 13 13 14 14 15 15 16 17 17 18 18 19 19 19 19 19 19 19 19 19 20 20 21 22 22 23 23 24 25 25 26 27 28 28 29 29 30 30 30 30 30 30 30 29 29
24 23 23 22 21 20 19 18 17 16 15 14 13 12 12 11 11 11 11 11 11 12 12 13 13 14 14 14 15 15 16 17 17 18 18 18 18 18 18 18 18 18 19 19 20 21 21 22 23 24 24 25 25 26 27 27 28 29 29 30 30 30 30 30 30 30 30 30 30
23 23 22 21 20 19 18 18 17 16 15 14 13 13 12 11 11 11 11 11 12 12 13 13 13 14 14 14 15 15 16 17 17 17 17 18 18 18 18 18 18 18 19 19 20 21 22 23 24 24 25 26 26 27 27 28 28 29 29 30 30 30 30 30 30 30 30 30 30
23 22 21 20 19 19 18 18 17 16 15 14 14 13 12 12 12 11 12 12 12 13 13 13 13 14 14 15 15 16 16 16 17 17 17 17 17 17 18 18 18 19 19 20 21 21 22 23 24 25 25 26 27 27 28 28 29 29 30 30 30 30 30 30 30 30 30 30 30
22 21 20 20 19 19 18 17 16 16 15 14 14 13 12 12 12 12 12 12 13 13 13 13 14 14 14 14 15 16 16 16 16 17 17 17 17 17 18 18 19 19 20 21 21 22 23 24 24 25 26 26 27 28 28 29 29 30 30 30 30 31 30 30 30 30 30 30 30
21 21 20 20 19 19 18 17 16 16 15 14 14 13 13 12 12 12 12 13 13 13 13 13 13 14 14 15 15 16 16 16 16 16 17 17 17 17 18 18 19 20 21 22 22 23 24 24 25 26 26 27 28 28 29 29 30 30 30 31 31 31 31 30 30 30 30 30 29
21 20 20 20 19 18 18 17 16 15 15 14 14 13 13 12 12 12 12 12 13 12 12 13 13 14 14 15 15 15 15 15 16 16 17 17 17 18 18 19 20 21 21 22 23 24 24 25 26 26 27 28 28 29 29 30 30 31 31 31 31 31 31 30 30 30 30 29 28
20 20 20 19 19 18 18 17 16 15 15 14 14 13 13 12 12 12 12 12 12 12 12 12 13 13 14 15 15 15 15 16 16 16 17 17 18 18 19 20 20 21 22 23 23 24 25 26 26 27 28 29 29 30 30 31 31 31 31 31 31 31 31 30 30 30 29 28 27
20 20 20 19 19 18 18 17 16 15 15 14 13 13 13 12 12 12 12 12 12 12 12 12 13 13 14 15 15 15 15 15 16 16 17 17 18 19 20 21 21 22 23 23 24 25 26 26 27 28 29 29 30 31 31 31 31 31 32 32 31 31 31 30 30 29 28 27 26
20 20 20 19 19 18 18 17 16 15 15 14 14 13 13 12 12 12 11 11 11 11 12 12 13 13 14 14 14 14 15 15 16 16 17 18 19 20 21 21 22 23 23 24 25 25 26 27 28 29 29 30 30 31 31 31 31 32 32 32 32 32 31 30 30 29 28 26 25
20 20 20 19 19 18 17 17 16 15 15 14 14 13 12 12 11 11 11 11 11 11 12 13 13 13 14 14 14 14 14 15 16 17 18 19 20 20 21 22 23 24 24 25 25 26 27 28 28 29 30 30 30 31 31 31 31 31 32 32 32 32 31 30 29 28 27 25 23
19 19 19 19 18 18 17 16 16 15 14 14 13 13 12 11 11 11 11 11 11 12 12 12 13 13 13 14 14 14 15 15 16 17 18 19 20 21 22 23 24 24 25 25 26 26 27 28 28 29 30 30 30 30 30 31 31 31 32 32 32 32 32 31 30 28 26 24 23
19 19 19 18 18 17 16 16 15 15 14 14 13 12 11 11 10 10 11 11 11 12 12 12 13 13 13 13 14 15 15 16 17 18 19 20 21 22 23 24 24 25 25 26 26 27 27 28 28 29 29 30 30 30 30 30 31 31 31 31 31 31 31 31 30 28 26 23 22
19 19 18 18 17 17 16 16 15 15 14 13 12 11 10 10 10 10 10 11 11 11 12 12 12 12 13 13 14 15 16 17 18 19 20 21 22 23 24 24 25 25 26 26 27 27 28 28 28 29 29 29 29 29 30 30 30 31 31 31 31 31 31 31 30 29 26 23 22
19 18 18 17 17 16 16 15 15 14 14 13 11 10 10 9 10 10 10 11 11 11 11 11 12 12 13 14 14 16 17 18 19 20 21 22 23 23 24 25 25 26 27 27 27 28 28 28 29 29 29 28 28 28 29 30 30 30 30 30 31 31 31 30 29 27 25 23 21
18 17 17 17 16 16 16 15 14 14 13 11 10 10 9 9 10 10 11 11 10 10 10 11 12 13 13 14 15 16 18 19 20 21 22 23 23 24 25 25 26 27 27 27 28 28 29 29 29 29 29 28 28 28 28 29 29 29 30 30 30 30 30 30 28 26 23 21 19
17 17 16 16 16 16 15 14 14 13 12 11 9 9 9 9 10 10 10 10 10 10 10 11 12 13 14 15 16 17 18 20 21 22 23 23 24 24 25 26 27 27 28 28 28 29 29 29 29 29 29 28 27 27 28 28 28 29 29 29 29 30 30 29 26 24 21 19 18
17 16 16 16 15 15 14 14 13 12 11 10 9 9 9 9 10 10 9 9 9 10 11 12 12 13 14 15 16 18 19 20 22 23 23 24 25 25 26 26 27 28 28 28 29 29 29 29 29 29 29 28 27 27 27 28 28 28 28 28 29 29 29 27 24 21 19 18 17
16 16 16 15 15 14 13 13 12 11 10 9 9 9 9 9 9 9 9 9 10 11 11 12 13 14 15 16 17 18 20 21 22 23 24 25 25 26 26 27 27 28 29 29 29 29 29 29 29 29 28 27 27 27 27 27 27 27 27 28 28 29 28 26 23 20 18 18 18
16 16 15 15 14 13 13 12 11 10 9 9 9 9 9 9 9 8 8 9 10 11 12 13 13 14 16 17 18 19 21 22 23 24 25 25 26 26 27 27 28 28 29 29 29 29 30 30 29 29 28 28 27 27 27 27 27 27 27 27 28 28 27 24 22 20 19 19 20
15 15 14 14 13 12 12 11 10 9 9 8 9 9 9 8 8 9 9 10 10 11 12 13 14 15 17 18 19 20 21 22 23 24 25 26 26 27 27 28 28 29 29 29 30 30 30 30 29 29 29 28 27 27 27 27 27 27 27 27 27 27 26 23 21 20 20 21 21
15 14 14 13 12 12 11 10 9 9 8 8 8 9 8 8 9 9 10 10 11 12 13 14 15 16 17 19 20 21 22 23 24 25 25 26 27 27 28 28 28 29 29 29 30 30 30 30 30 29 29 28 28 27 27 26 26 26 26 26 27 27 25 23 22 21 21 22 22
14 14 13 12 12 11 10 9 8 8 8 8 8 9 9 9 9 9 10 10 11 12 13 14 15 17 18 19 20 22 23 24 24 25 26 27 27 28 28 28 29 29 29 29 30 30 30 30 30 29 29 28 27 27 26 26 26 26 26 26 26 26 25 24 23 23 22 22 22
13 13 12 11 10 10 9 8 8 8 8 8 9 9 9 9 9 10 10 10 11 12 14 15 16 18 19 20 21 22 23 24 25 26 26 27 28 28 29 29 29 29 29 30 30 30 30 30 30 29 28 28 27 26 25 25 25 25 25 25 26 26 25 24 24 24 23 22 21
12 12 11 10 9 9 8 8 7 8 8 8 9 9 9 9 10 10 11 11 12 13 15 16 17 19 20 21 21 22 23 24 25 26 27 27 28 29 29 29 30 30 30 30 30 30 30 30 30 29 28 27 26 25 24 24 24 24 24 25 26 26 25 25 24 24 22 21 22
12 11 10 9 9 8 7 7 8 8 8 8 9 9 9 9 10 10 11 12 13 14 16 17 18 19 21 21 22 23 23 24 25 26 27 27 28 29 29 30 30 30 30 30 30 30 30 30 29 28 27 26 24 24 23 24 24 24 25 25 26 26 26 25 24 23 22 22 25
11 10 9 8 7 7 7 7 8 8 8 8 9 9 9 9 10 11 12 13 14 15 17 18 19 20 21 22 23 23 24 24 25 26 27 27 28 28 29 30 30 30 30 30 30 30 30 30 29 28 26 24 23 22 22 23 23 24 24 25 26 27 26 25 23 22 23 26 29
10 9 8 7 6 7 7 8 8 8 8 8 9 9 9 10 11 12 13 14 15 16 17 18 19 20 22 23 23 24 25 25 25 26 26 27 28 28 29 30 30 30 30 31 31 31 30 30 29 27 25 23 22 22 22 22 23 24 25 25 26 26 26 25 23 24 26 30 33
Wind_Direction
202 203 201 199 197 195 194 193 193 193 193 193 193 193 195 196 198 201 207 216 229 242 256 269 280 289 296 301 305 309 311 313 315 318 322 325 328 330 331 331 331 330 329 328 327 326 325 324 324 323 323 323 323 322 323 322 323 323 323 323 323 322 322 321 321 320 319 318 317
198 198 197 196 194 193 192 191 191 191 191 192 193 195 196 198 200 205 213 223 236 250 264 276 285 292 298 302 305 307 309 311 314 317 321 325 327 329 330 330 330 329 328 327 326 325 324 324 323 323 323 323 323 323 323 323 323 323 323 323 322 322 321 321 320 319 318 318 317
194 195 194 193 192 191 191 191 191 191 191 192 193 195 197 200 204 211 220 231 244 258 270 280 289 295 299 302 304 305 306 309 312 316 321 324 326 328 329 329 328 327 326 325 325 324 324 323 323 323 323 323 323 323 323 323 323 323 323 323 322 321 321 320 319 318 318 317 316
192 192 192 191 191 192 192 193 193 193 194 195 197 198 200 204 210 217 227 239 251 264 275 284 292 297 300 301 302 303 305 307 311 316 320 323 325 326 327 327 327 326 325 324 324 323 323 323 323 323 324 324 324 324 324 323 323 323 323 322 322 321 320 319 318 318 317 316 316
190 191 191 191 192 193 195 196 197 198 199 200 201 203 205 209 214 223 234 245 256 268 279 289 294 297 299 300 301 302 304 307 311 315 319 322 323 324 325 325 325 325 324 323 323 323 323 323 323 324 324 324 324 324 323 323 324 323 323 322 321 320 320 318 318 317 316 316 315
188 189 190 192 193 194 196 197 200 202 203 204 206 207 209 213 220 228 238 249 262 274 285 291 295 297 298 299 300 301 304 307 310 314 317 320 321 322 323 324 323 323 323 323 323 323 323 324 324 324 324 324 324 324 324 323 323 323 322 321 321 320 319 318 317 317 316 316 315
187 189 191 192 194 196 197 199 201 204 205 206 207 208 211 217 224 233 244 255 268 279 286 291 294 296 297 299 300 302 304 307 310 313 316 318 320 321 322 322 322 322 322 322 323 323 323 323 324 324 324 325 325 324 323 323 323 323 322 321 320 319 319 318 317 316 316 315 315
188 190 192 194 196 198 199 202 204 205 206 206 206 208 213 221 228 238 250 261 271 280 286 291 293 296 297 299 300 302 305 308 310 312 314 316 318 319 320 321 321 322 322 322 322 323 323 323 324 324 325 325 325 324 323 323 323 322 322 321 320 319 319 318 317 316 315 315 314
189 192 194 196 198 200 202 204 206 207 207 207 207 210 216 224 233 243 253 263 272 280 286 290 293 296 298 299 301 303 305 308 309 311 313 315 317 318 319 320 321 321 321 321 322 323 323 324 324 325 325 325 324 324 323 323 322 322 321 321 320 319 319 318 317 316 315 314 313
191 194 196 198 200 202 203 205 206 207 208 209 210 214 219 227 236 245 255 264 273 280 286 290 293 296 298 299 301 303 305 307 309 310 312 314 316 318 319 319 320 320 321 321 322 322 323 324 325 325 325 324 324 324 323 323 322 322 321 320 320 319 319 318 316 315 314 313 313
194 197 199 201 202 203 205 206 207 207 208 210 213 217 222 228 237 246 256 265 274 281 286 290 294 296 298 300 302 303 305 306 308 309 311 313 315 317 318 319 320 320 321 321 322 322 323 324 324 325 325 324 324 324 323 323 322 322 321 320 320 319 318 317 316 314 313 312 312
198 200 201 202 204 205 206 208 209 209 210 211 214 218 223 230 238 248 258 267 275 281 286 290 294 297 299 300 302 303 305 306 307 309 311 314 316 317 318 319 320 321 321 321 322 323 323 324 325 325 325 324 324 324 323 323 322 322 321 320 320 319 318 316 315 314 313 312 313
202 203 203 203 204 206 208 209 211 212 212 212 215 219 224 232 240 250 260 269 277 282 287 291 294 297 299 301 302 304 305 306 308 310 312 314 316 317 319 319 320 321 321 322 323 323 324 324 325 325 325 325 325 324 324 323 322 322 321 320 319 318 317 316 315 314 313 313 314
203 204 204 204 205 207 208 210 212 213 213 213 215 220 226 234 243 252 262 271 278 283 288 291 295 297 299 301 302 304 305 307 308 310 313 314 316 317 319 319 320 321 322 322 323 324 325 325 325 325 325 325 325 324 324 323 322 321 320 319 318 317 317 316 315 315 315 315 315
203 203 203 204 205 207 209 211 212 213 213 213 216 222 229 237 246 255 265 273 279 284 289 292 295 297 299 301 302 304 306 307 309 311 313 315 316 318 318 319 320 320 322 323 324 325 325 325 326 326 326 325 325 324 324 322 322 321 320 319 318 317 317 316 316 316 316 315 315
202 202 203 204 206 208 210 211 212 212 213 214 219 225 232 240 249 258 267 274 280 286 290 292 295 297 299 301 303 305 307 308 310 312 314 315 316 317 318 319 320 321 322 324 325 325 326 326 326 326 325 325 324 324 323 322 321 320 319 318 318 317 317 317 317 317 316 316 315
200 201 202 204 207 209 210 211 212 212 213 217 222 229 236 244 252 261 269 276 282 287 291 293 295 297 299 302 304 306 308 309 311 312 314 315 316 317 318 319 320 321 323 325 326 326 326 326 325 325 325 324 323 322 322 321 320 319 319 318 318 318 318 318 317 317 316 316 315
199 201 203 205 208 209 210 211 211 212 215 220 226 232 239 247 255 264 272 279 284 289 292 294 296 297 300 302 304 306 308 310 311 313 314 315 316 317 318 320 321 323 324 326 326 327 326 326 325 324 324 323 322 321 320 320 319 319 319 319 319 319 318 318 317 317 316 315 314
200 202 204 206 208 209 210 210 211 214 218 224 230 236 243 250 258 267 275 282 286 290 292 293 296 298 301 303 305 307 308 310 312 313 314 315 317 318 320 321 323 324 325 326 327 327 326 325 325 324 323 321 321 320 320 320 320 320 320 320 319 319 318 318 317 317 316 315 314
202 204 205 207 208 209 209 210 213 217 222 227 233 239 246 254 262 270 278 284 288 290 292 293 296 299 302 304 306 308 309 310 312 313 315 316 318 319 321 322 324 325 326 327 327 327 326 325 324 323 322 321 320 320 320 321 321 321 321 320 319 319 318 318 318 317 316 315 314
204 205 207 208 208 209 210 212 216 220 225 231 236 242 250 258 266 273 280 284 287 290 292 294 296 300 303 305 307 308 309 310 312 314 315 317 318 320 321 323 324 326 326 327 327 326 325 324 323 322 321 321 321 321 321 322 321 321 320 320 319 319 318 318 318 317 316 315 313
205 206 207 208 208 210 212 215 219 224 228 234 240 246 254 261 269 275 280 284 287 289 291 294 297 301 303 305 306 307 309 311 313 315 316 318 319 321 322 324 325 326 327 327 327 326 325 324 323 323 322 322 322 322 322 322 321 321 320 319 319 318 318 318 318 318 316 315 313
206 206 207 208 210 212 215 219 223 227 232 237 243 250 257 264 270 276 280 284 286 288 291 295 298 301 303 305 306 307 309 311 314 315 317 319 320 322 323 324 325 326 327 327 327 326 325 325 324 323 323 322 322 322 321 321 320 320 319 319 318 318 318 318 319 318 317 314 312
206 207 208 210 212 215 218 222 226 230 235 240 246 253 259 266 271 277 281 284 286 289 293 296 300 302 303 305 305 307 309 312 314 316 317 319 320 322 323 324 325 326 327 327 327 327 326 325 324 323 323 322 321 321 320 320 319 319 318 318 318 318 318 319 319 319 317 314 312
206 208 210 212 215 218 222 225 229 233 238 242 248 254 261 268 273 277 281 284 288 292 295 299 301 302 304 305 306 308 310 312 313 315 317 319 320 322 323 324 325 326 327 327 327 327 326 325 324 323 322 321 320 320 319 319 318 318 318 317 317 318 318 319 320 320 318 314 311
206 209 212 214 218 221 224 228 231 236 240 245 250 256 263 269 274 278 282 286 290 294 298 300 301 302 304 306 308 310 312 313 315 316 318 319 321 322 323 325 325 326 327 327 327 327 326 325 324 322 321 320 319 319 319 318 318 317 317 317 317 317 319 320 321 321 319 315 311
208 210 213 217 220 223 226 230 233 237 241 246 251 258 265 270 275 280 285 288 293 297 299 300 300 302 304 307 309 311 313 314 316 318 319 320 322 323 324 325 326 326 327 327 327 326 326 324 323 321 320 320 319 318 318 317 317 317 316 316 317 318 319 321 323 323 321 317 313
209 212 215 219 221 224 228 231 234 238 241 247 253 259 266 273 278 283 287 291 295 298 299 299 300 302 305 308 310 312 314 315 317 319 320 321 323 324 325 326 326 326 327 327 326 326 325 324 322 321 321 320 319 318 317 316 316 316 316 316 316 318 320 323 325 325 323 320 317
211 214 218 220 223 226 229 232 235 238 243 248 254 261 269 275 281 285 290 295 297 298 297 297 300 303 306 308 311 313 315 316 318 319 321 322 324 325 326 326 326 326 326 326 326 325 324 323 322 321 321 320 319 318 316 315 315 315 315 315 316 319 322 325 326 327 326 324 322
213 216 219 222 225 227 229 232 235 239 243 249 256 263 270 277 283 288 292 295 295 294 294 296 300 303 306 309 312 314 316 317 319 320 321 323 324 325 326 326 326 326 326 326 325 324 324 323 322 321 321 320 319 317 316 315 315 314 315 315 317 320 323 327 329 329 329 328 327
214 217 220 223 225 227 229 232 236 240 244 250 257 265 273 279 284 289 291 292 291 291 293 297 301 304 307 310 313 315 317 318 319 321 322 323 324 326 326 326 326 326 325 325 325 324 323 323 322 321 321 320 319 317 315 315 314 314 315 316 318 321 325 329 331 331 332 331 330
215 218 220 222 224 226 229 232 236 240 245 251 259 267 275 281 285 288 288 287 287 290 294 299 303 306 309 312 314 316 317 319 320 321 323 324 325 326 327 327 326 326 325 325 324 324 323 322 322 321 321 320 319 317 316 315 315 315 315 316 319 323 327 331 332 333 334 333 331
215 217 219 221 224 226 229 232 235 240 245 253 262 270 278 283 286 285 284 283 286 291 296 301 305 308 311 313 315 317 318 320 321 322 323 324 325 326 327 327 326 325 325 324 324 323 323 322 322 322 321 320 319 318 317 316 316 316 316 317 320 324 328 332 334 335 335 334 331
214 216 218 220 223 226 229 232 235 241 248 257 266 273 279 282 282 281 281 284 289 295 299 304 307 311 313 315 317 318 319 320 322 323 324 324 325 326 326 326 326 325 324 324 324 323 323 322 322 322 321 321 320 319 318 318 317 317 318 319 321 325 329 333 335 336 335 333 329
214 216 218 221 223 226 229 232 236 243 252 261 269 274 278 279 278 279 281 286 292 298 303 307 311 313 315 317 318 319 320 321 322 323 324 325 325 325 326 326 325 325 324 324 323 323 322 322 322 322 322 321 321 320 320 319 319 319 319 319 321 325 330 333 335 335 334 331 327
214 216 219 221 223 226 229 233 240 249 259 266 271 274 276 276 277 278 282 289 296 301 306 309 312 314 316 317 319 320 321 322 323 324 325 325 325 325 325 325 325 324 324 323 323 323 323 323 323 323 323 323 322 322 322 321 320 320 319 319 321 325 330 333 334 333 331 327 325
213 216 219 222 224 227 231 237 247 257 265 270 273 274 275 275 277 281 286 293 299 303 307 310 312 314 315 317 319 321 322 324 325 325 325 325 325 325 325 325 325 324 324 323 323 323 323 323 324 324 324 324 324 324 323 322 321 319 319 319 321 325 330 333 333 330 327 325 324
212 215 218 221 224 229 235 245 255 264 270 273 274 274 275 276 280 285 290 297 301 305 308 310 312 314 316 318 320 322 324 324 325 325 325 325 325 325 325 325 324 324 324 323 323 323 323 324 324 325 326 326 326 325 324 322 320 318 318 319 322 326 329 331 330 327 324 323 323
211 214 218 221 225 232 242 253 263 269 273 274 273 273 274 278 283 289 295 300 304 307 309 312 314 316 317 319 321 323 324 324 325 325 325 325 325 324 324 324 324 324 323 323 323 323 323 324 325 326 327 327 327 326 323 321 319 318 319 320 323 326 328 328 326 323 321 321 321
211 214 217 221 229 239 252 263 268 272 272 271 270 271 275 281 288 294 299 303 307 309 311 313 315 317 319 320 322 323 323 324 324 324 324 324 324 324 324 323 323 323 323 323 323 323 323 324 326 327 328 329 328 325 322 320 319 319 320 322 324 326 326 324 322 320 319 318 318
209 213 218 227 240 254 263 269 270 270 269 267 268 272 278 285 292 297 302 305 308 310 313 315 317 319 320 321 321 322 322 323 323 324 324 324 324 324 323 323 322 322 322 322 323 323 324 325 327 328 329 329 327 324 321 320 320 320 321 323 324 324 323 321 319 318 317 316 316
Height
1473 1474 1476 1477 1479 1481 1483 1484 1486 1487 1488 1489 1489 1490 1491 1491 1492 1492 1493 1493 1494 1494 1494 1494 1494 1494 1494 1494 1494 1493 1493 1493 1493 1493 1492 1492 1491 1491 1490 1490 1489 1489 1488 1488 1487 1487 1486 1486 1485 1484 1484 1483 1483 1482 1481 1480 1479 1478 1478 1477 1476 1475 1474 1473 1472 1471 1470 1469 1468
1472 1474 1475 1477 1479 1481 1483 1484 1485 1487 1488 1488 1489 1490 1490 1491 1491 1492 1492 1493 1493 1493 1493 1493 1493 1493 1493 1493 1493 1493 1493 1493 1492 1492 1492 1491 1490 1490 1489 1489 1488 1488 1487 1487 1487 1486 1485 1485 1484 1484 1483 1482 1482 1481 1480 1479 1478 1478 1476 1475 1474 1473 1473 1472 1471 1470 1469 1468 1467
1472 1474 1476 1477 1479 1481 1482 1483 1485 1486 1487 1488 1488 1489 1490 1490 1491 1491 1492 1492 1493 1493 1493 1493 1493 1493 1493 1493 1492 1492 1492 1492 1492 1491 1491 1490 1489 1489 1488 1488 1488 1487 1487 1486 1486 1485 1485 1484 1483 1483 1482 1481 1480 1480 1479 1478 1477 1476 1475 1474 1473 1473 1471 1470 1469 1468 1467 1466 1465
1472 1474 1476 1478 1479 1481 1482 1483 1484 1485 1486 1487 1488 1488 1489 1489 1490 1490 1491 1491 1492 1492 1492 1492 1492 1492 1492 1492 1492 1492 1492 1491 1491 1490 1490 1489 1488 1488 1488 1487 1487 1486 1486 1485 1485 1484 1483 1483 1482 1482 1481 1480 1479 1478 1478 1477 1476 1475 1474 1473 1472 1471 1470 1469 1468 1467 1466 1465 1464
1472 1474 1476 1478 1479 1481 1482 1483 1484 1485 1486 1487 1487 1488 1488 1489 1489 1490 1490 1491 1491 1491 1491 1491 1491 1491 1491 1491 1491 1491 1491 1490 1490 1489 1489 1488 1488 1487 1487 1486 1486 1485 1485 1484 1484 1483 1483 1482 1481 1481 1480 1479 1478 1478 1477 1476 1475 1474 1473 1472 1471 1470 1469 1468 1467 1466 1465 1463 1463
1472 1474 1476 1478 1479 1481 1482 1483 1484 1485 1485 1486 1487 1487 1488 1488 1488 1489 1489 1490 1490 1490 1490 1491 1491 1491 1491 1491 1491 1490 1490 1489 1489 1488 1488 1488 1487 1486 1486 1485 1485 1484 1484 1483 1483 1482 1482 1481 1480 1480 1479 1478 1477 1476 1475 1475 1474 1473 1472 1471 1470 1469 1468 1466 1465 1464 1463 1462 1461
1472 1474 1476 1478 1479 1480 1481 1482 1483 1484 1485 1486 1486 1486 1487 1488 1488 1488 1489 1489 1489 1490 1490 1490 1490 1490 1490 1490 1490 1489 1489 1488 1488 1488 1487 1487 1486 1486 1485 1485 1484 1483 1483 1483 1482 1481 1481 1480 1479 1478 1478 1477 1476 1475 1474 1473 1473 1472 1471 1470 1469 1468 1467 1465 1464 1463 1462 1460 1459
1473 1474 1476 1477 1478 1480 1481 1482 1483 1483 1484 1485 1485 1486 1486 1487 1487 1488 1488 1488 1489 1489 1489 1489 1489 1489 1489 1489 1489 1488 1488 1488 1487 1487 1486 1486 1485 1485 1484 1484 1483 1483 1482 1482 1481 1480 1480 1479 1478 1478 1477 1476 1475 1474 1473 1472 1471 1471 1470 1468 1468 1466 1465 1464 1462 1461 1460 1459 1458
1472 1474 1476 1477 1478 1479 1480 1481 1482 1483 1483 1484 1484 1485 1486 1486 1487 1487 1488 1488 1488 1488 1488 1489 1489 1488 1488 1488 1488 1488 1487 1487 1486 1486 1486 1485 1485 1484 1483 1483 1483 1482 1481 1481 1480 1479 1479 1478 1477 1477 1476 1475 1474 1473 1472 1471 1470 1469 1468 1467 1466 1465 1464 1463 1461 1460 1458 1457 1456
1472 1473 1475 1477 1478 1479 1480 1481 1482 1482 1483 1483 1484 1484 1485 1486 1486 1486 1487 1487 1488 1488 1488 1488 1488 1488 1488 1487 1487 1487 1486 1486 1486 1485 1485 1484 1484 1483 1483 1482 1482 1481 1480 1480 1479 1478 1478 1477 1476 1475 1475 1474 1473 1472 1471 1470 1469 1468 1467 1466 1464 1463 1462 1461 1460 1458 1457 1456 1454
1472 1473 1475 1476 1477 1478 1479 1480 1481 1482 1482 1483 1483 1484 1484 1485 1485 1486 1486 1487 1487 1487 1487 1487 1487 1487 1487 1486 1486 1486 1485 1485 1485 1484 1484 1483 1483 1483 1482 1481 1481 1480 1479 1479 1478 1478 1477 1476 1475 1474 1473 1473 1472 1471 1469 1468 1468 1467 1465 1464 1463 1462 1460 1459 1458 1457 1455 1454 1453
1472 1473 1474 1475 1477 1478 1478 1479 1480 1481 1481 1482 1483 1483 1484 1484 1485 1485 1486 1486 1486 1486 1486 1486 1486 1486 1486 1485 1485 1485 1484 1484 1484 1483 1483 1483 1482 1482 1481 1480 1480 1479 1478 1478 1477 1476 1475 1475 1474 1473 1473 1472 1471 1469 1468 1467 1466 1465 1464 1463 1461 1460 1459 1458 1456 1455 1454 1452 1451
1471 1473 1474 1475 1476 1477 1478 1479 1479 1480 1481 1482 1482 1483 1483 1484 1484 1484 1485 1485 1485 1485 1485 1485 1485 1485 1485 1484 1484 1484 1483 1483 1483 1483 1482 1482 1481 1480 1480 1479 1478 1478 1477 1477 1476 1475 1474 1473 1473 1472 1471 1470 1469 1468 1467 1466 1464 1463 1462 1461 1459 1458 1457 1456 1454 1453 1452 1451 1449
1471 1472 1473 1474 1475 1476 1477 1478 1479 1480 1480 1481 1482 1482 1483 1483 1483 1484 1484 1484 1484 1484 1484 1484 1484 1484 1484 1483 1483 1483 1483 1483 1482 1482 1481 1481 1480 1479 1479 1478 1478 1477 1476 1475 1475 1474 1473 1472 1471 1470 1470 1469 1468 1467 1466 1464 1463 1462 1460 1459 1458 1457 1455 1454 1453 1451 1450 1449 1447
1470 1472 1473 1474 1475 1476 1477 1478 1478 1479 1480 1480 1481 1482 1482 1483 1483 1483 1483 1483 1483 1483 1483 1483 1483 1483 1483 1483 1482 1482 1482 1482 1481 1481 1480 1480 1479 1478 1478 1477 1477 1476 1475 1474 1474 1473 1472 1471 1470 1469 1468 1467 1466 1465 1464 1463 1462 1460 1459 1458 1456 1455 1453 1452 1451 1449 1448 1447 1445
1470 1471 1473 1473 1474 1475 1476 1477 1478 1479 1479 1480 1480 1481 1481 1482 1482 1482 1482 1483 1483 1483 1483 1483 1482 1482 1482 1482 1481 1481 1481 1481 1480 1480 1479 1479 1478 1478 1477 1476 1476 1475 1474 1473 1473 1472 1471 1470 1469 1468 1467 1466 1465 1464 1463 1462 1460 1459 1458 1456 1455 1453 1452 1450 1449 1448 1446 1445 1444
1470 1471 1472 1473 1474 1475 1476 1477 1478 1478 1479 1479 1480 1480 1481 1481 1481 1481 1481 1482 1482 1482 1482 1481 1481 1481 1481 1481 1480 1480 1480 1480 1479 1479 1478 1478 1477 1477 1476 1475 1474 1474 1473 1473 1472 1471 1470 1468 1468 1467 1465 1464 1463 1462 1461 1460 1459 1458 1456 1455 1453 1452 1450 1449 1448 1446 1445 1443 1442
1469 1471 1472 1473 1474 1475 1475 1476 1477 1478 1478 1479 1479 1479 1480 1480 1480 1480 1480 1481 1481 1481 1480 1480 1480 1480 1480 1480 1479 1479 1479 1479 1478 1478 1477 1477 1476 1476 1475 1474 1473 1473 1472 1471 1470 1469 1468 1468 1466 1465 1464 1463 1462 1461 1460 1458 1457 1456 1454 1453 1452 1450 1449 1447 1446 1445 1443 1442 1441
1469 1470 1471 1472 1473 1474 1475 1476 1476 1477 1478 1478 1478 1479 1479 1479 1479 1479 1479 1480 1480 1480 1479 1479 1479 1479 1479 1479 1478 1478 1478 1478 1477 1477 1476 1476 1475 1474 1474 1473 1473 1472 1471 1470 1469 1468 1467 1466 1465 1464 1463 1462 1461 1459 1458 1457 1456 1454 1453 1451 1450 1448 1447 1446 1444 1443 1442 1440 1439
1469 1470 1471 1472 1473 1473 1474 1475 1476 1476 1477 1477 1478 1478 1478 1478 1478 1478 1478 1478 1478 1478 1478 1478 1478 1478 1478 1478 1478 1478 1477 1477 1476 1476 1475 1474 1474 1473 1473 1472 1471 1471 1470 1469 1468 1467 1466 1465 1464 1463 1461 1460 1459 1458 1457 1455 1454 1453 1451 1450 1448 1447 1445 1444 1443 1442 1440 1439 1438
1468 1469 1470 1471 1472 1473 1474 1474 1475 1476 1476 1477 1477 1477 1477 1478 1478 1478 1478 1478 1478 1478 1478 1478 1478 1478 1477 1477 1477 1477 1476 1476 1475 1475 1474 1473 1473 1472 1472 1471 1470 1469 1469 1468 1467 1466 1465 1463 1462 1461 1460 1458 1457 1456 1454 1453 1452 1450 1449 1448 1446 1445 1444 1443 1441 1440 1438 1437 1436
1468 1469 1470 1471 1472 1473 1473 1474 1474 1475 1475 1476 1476 1476 1476 1477 1477 1477 1477 1477 1477 1477 1477 1477 1477 1477 1476 1476 1476 1476 1475 1475 1474 1473 1473 1473 1472 1471 1470 1470 1469 1468 1468 1467 1466 1464 1463 1462 1461 1459 1458 1456 1455 1454 1453 1451 1450 1448 1447 1446 1444 1443 1442 1441 1439 1438 1437 1435 1434
1468 1468 1469 1470 1471 1472 1473 1473 1474 1474 1475 1475 1475 1475 1476 1476 1476 1476 1476 1476 1476 1476 1476 1476 1476 1476 1476 1475 1475 1475 1474 1474 1473 1473 1472 1471 1471 1470 1469 1469 1468 1467 1466 1465 1464 1463 1462 1460 1459 1457 1456 1454 1453 1452 1451 1449 1448 1447 1445 1444 1443 1441 1440 1439 1438 1437 1435 1434 1433
1467 1468 1469 1470 1471 1471 1472 1473 1473 1473 1474 1474 1474 1474 1475 1475 1475 1475 1475 1475 1475 1475 1475 1475 1475 1475 1475 1474 1474 1474 1473 1473 1473 1472 1471 1470 1470 1469 1468 1468 1467 1466 1465 1464 1463 1462 1460 1458 1457 1455 1454 1453 1452 1450 1449 1448 1446 1445 1443 1442 1440 1439 1438 1437 1436 1435 1433 1432 1431
1467 1468 1468 1469 1470 1471 1471 1472 1472 1473 1473 1473 1473 1474 1474 1474 1474 1474 1474 1474 1474 1474 1474 1474 1474 1474 1474 1473 1473 1473 1473 1472 1472 1471 1470 1470 1469 1468 1467 1466 1465 1464 1463 1463 1462 1460 1459 1458 1456 1454 1453 1451 1450 1448 1447 1446 1445 1443 1442 1440 1439 1437 1436 1435 1434 1433 1432 1430 1429
1466 1467 1468 1468 1469 1470 1470 1471 1471 1472 1472 1472 1473 1473 1473 1473 1473 1473 1474 1474 1474 1473 1473 1473 1473 1473 1473 1473 1472 1472 1471 1471 1471 1470 1469 1468 1468 1467 1466 1465 1464 1463 1462 1461 1460 1459 1458 1456 1455 1453 1452 1450 1448 1447 1446 1444 1443 1442 1440 1439 1437 1436 1434 1433 1432 1430 1429 1428 1427
1465 1466 1467 1468 1468 1469 1469 1470 1470 1471 1471 1471 1472 1472 1473 1473 1473 1473 1473 1473 1473 1473 1473 1473 1473 1472 1472 1472 1471 1471 1470 1470 1469 1469 1468 1468 1467 1466 1465 1464 1463 1462 1461 1460 1459 1458 1456 1455 1453 1452 1450 1449 1447 1446 1444 1443 1441 1440 1438 1437 1436 1434 1433 1431 1430 1428 1427 1426 1425
1465 1465 1466 1467 1468 1468 1469 1469 1469 1470 1470 1471 1471 1472 1472 1472 1472 1472 1472 1472 1472 1472 1472 1472 1472 1472 1471 1471 1470 1470 1469 1468 1468 1468 1467 1466 1465 1464 1463 1463 1461 1460 1459 1458 1457 1456 1455 1453 1452 1451 1449 1448 1446 1444 1443 1441 1440 1438 1437 1436 1434 1433 1431 1430 1428 1427 1425 1424 1423
1464 1465 1466 1466 1467 1468 1468 1468 1469 1469 1470 1470 1471 1471 1471 1471 1471 1472 1472 1471 1471 1471 1471 1471 1471 1471 1470 1470 1469 1469 1468 1468 1467 1466 1466 1465 1464 1463 1462 1461 1460 1459 1458 1457 1456 1454 1453 1452 1450 1449 1448 1446 1444 1443 1441 1440 1438 1437 1435 1434 1433 1431 1430 1428 1427 1425 1423 1422 1421
1463 1464 1465 1466 1466 1467 1467 1468 1468 1468 1469 1470 1470 1470 1470 1471 1471 1471 1471 1471 1471 1471 1471 1470 1470 1470 1469 1469 1468 1468 1467 1466 1466 1465 1464 1463 1463 1462 1461 1460 1458 1458 1456 1455 1454 1453 1452 1450 1449 1447 1446 1444 1443 1441 1440 1438 1437 1435 1434 1432 1431 1429 1428 1427 1425 1423 1422 1421 1420
1463 1463 1464 1465 1465 1466 1466 1467 1468 1468 1468 1469 1469 1470 1470 1470 1470 1470 1470 1470 1470 1470 1470 1470 1469 1469 1469 1468 1468 1467 1466 1465 1464 1464 1463 1462 1461 1461 1459 1458 1457 1456 1455 1454 1453 1451 1450 1448 1447 1445 1444 1443 1441 1440 1438 1437 1435 1433 1432 1431 1429 1428 1427 1425 1424 1422 1421 1420 1419
1462 1463 1463 1464 1465 1465 1466 1466 1467 1468 1468 1468 1469 1469 1469 1469 1469 1469 1469 1469 1469 1469 1469 1469 1468 1468 1468 1467 1467 1466 1465 1464 1463 1463 1462 1461 1460 1459 1458 1457 1456 1454 1453 1452 1451 1449 1448 1447 1445 1444 1443 1441 1440 1438 1436 1435 1433 1432 1430 1429 1428 1426 1425 1424 1422 1421 1420 1419 1418
1462 1462 1463 1463 1464 1465 1465 1466 1466 1467 1467 1468 1468 1468 1468 1468 1468 1468 1468 1468 1468 1468 1468 1468 1468 1467 1467 1466 1466 1465 1464 1463 1462 1461 1460 1459 1458 1458 1457 1455 1454 1453 1452 1450 1449 1448 1446 1445 1443 1442 1441 1439 1438 1436 1435 1433 1432 1430 1429 1427 1426 1425 1424 1423 1421 1420 1418 1417 1416
1461 1462 1463 1463 1464 1464 1465 1465 1466 1466 1467 1467 1467 1468 1468 1468 1468 1468 1468 1468 1468 1468 1467 1467 1467 1466 1466 1465 1464 1464 1463 1462 1461 1460 1459 1458 1457 1456 1455 1454 1453 1452 1450 1449 1447 1446 1445 1443 1442 1441 1439 1438 1436 1434 1433 1431 1430 1428 1427 1426 1424 1423 1422 1421 1420 1418 1417 1416 1415
1461 1461 1462 1463 1463 1464 1464 1465 1465 1466 1466 1466 1467 1467 1467 1467 1467 1467 1467 1467 1467 1467 1466 1466 1466 1465 1464 1464 1463 1463 1462 1461 1460 1459 1458 1457 1456 1455 1454 1453 1451 1450 1449 1447 1446 1444 1443 1442 1440 1439 1438 1436 1434 1433 1431 1429 1428 1426 1425 1424 1423 1422 1420 1419 1418 1417 1416 1414 1413
1460 1461 1462 1462 1463 1463 1464 1464 1465 1465 1465 1466 1466 1466 1466 1466 1467 1467 1467 1467 1466 1466 1465 1465 1464 1464 1463 1463 1462 1461 1460 1459 1458 1458 1456 1455 1454 1453 1452 1451 1450 1448 1447 1446 1444 1443 1441 1440 1439 1437 1436 1434 1432 1431 1429 1428 1426 1425 1423 1422 1421 1420 1419 1418 1416 1415 1414 1413 1412
1460 1461 1461 1462 1463 1463 1463 1464 1464 1465 1465 1465 1465 1465 1466 1466 1466 1466 1466 1466 1466 1465 1465 1464 1464 1463 1463 1462 1461 1460 1459 1458 1457 1456 1455 1454 1453 1451 1450 1449 1448 1447 1445 1444 1443 1441 1440 1438 1437 1436 1434 1432 1430 1429 1427 1426 1424 1423 1422 1421 1420 1418 1417 1416 1415 1413 1413 1412 1411
1460 1460 1461 1462 1462 1463 1463 1463 1464 1464 1464 1464 1464 1465 1465 1465 1465 1465 1465 1465 1465 1464 1464 1463 1463 1462 1461 1461 1460 1459 1458 1457 1456 1455 1453 1452 1451 1450 1448 1447 1446 1445 1444 1443 1441 1439 1438 1437 1436 1434 1433 1431 1429 1427 1426 1424 1423 1422 1421 1419 1418 1417 1416 1415 1413 1412 1411 1410 1409
1459 1460 1461 1461 1462 1462 1463 1463 1463 1463 1463 1463 1464 1464 1464 1464 1464 1464 1464 1464 1463 1463 1463 1462 1462 1461 1460 1459 1459 1458 1457 1456 1455 1454 1453 1451 1450 1448 1447 1446 1444 1443 1442 1441 1439 1438 1437 1435 1434 1433 1431 1429 1428 1426 1425 1423 1422 1421 1419 1418 1417 1415 1414 1413 1412 1411 1410 1409 1408
1459 1460 1460 1461 1461 1462 1462 1462 1463 1463 1463 1463 1463 1463 1463 1463 1463 1463 1463 1463 1463 1462 1462 1461 1460 1460 1459 1458 1458 1457 1456 1455 1454 1453 1452 1450 1449 1447 1446 1444 1443 1442 1441 1439 1438 1437 1435 1434 1433 1431 1430 1428 1427 1425 1424 1422 1421 1419 1418 1417 1415 1414 1413 1412 1411 1410 1408 1407 1406
1459 1459 1460 1460 1461 1461 1462 1462 1462 1462 1462 1463 1463 1463 1463 1463 1463 1462 1462 1462 1461 1461 1461 1460 1459 1458 1458 1457 1456 1455 1455 1454 1453 1452 1450 1449 1448 1446 1445 1443 1442 1440 1439 1438 1437 1435 1433 1432 1431 1430 1428 1427 1426 1424 1423 1421 1420 1418 1417 1416 1414 1413 1412 1410 1409 1408 1407 1406 1405